Temperature
15 14 13 14 13 13 12 11 11 10 10 10 10 9 9 9 9 9 9 9 8 8 8 8 8 8 9 9 10 10 11 12 12 11 11 10 10 10 10 11 11 11 11
17 15 14 14 14 13 13 12 11 11 10 10 10 9 9 9 9 9 8 8 8 8 8 8 8 8 8 9 9 10 11 12 11 11 11 11 9 9 9 10 10 10 10
16 15 14 14 14 14 13 13 12 11 11 10 10 9 9 9 9 9 9 8 8 8 8 8 8 8 8 8 9 10 11 11 11 11 10 10 9 8 8 9 9 9 9
16 15 15 14 14 14 14 13 12 12 11 10 10 10 9 9 9 8 8 8 8 8 8 8 8 8 8 8 9 10 11 11 10 10 10 10 8 7 8 8 8 8 8
16 15 15 14 14 14 14 13 13 12 11 11 10 10 9 9 9 8 8 8 8 8 8 8 8 8 8 8 9 10 10 10 10 10 10 9 8 7 7 7 7 7 7
17 15 15 14 14 14 14 14 13 12 12 11 11 10 10 9 9 9 9 9 9 9 9 9 9 9 9 8 9 10 10 10 10 10 9 9 8 7 7 7 7 7 7
17 16 15 14 14 14 14 13 13 13 12 11 11 10 10 10 10 10 9 9 9 9 9 9 9 9 9 9 9 10 10 10 9 9 9 9 8 7 7 7 7 7 6
18 16 15 14 14 14 13 13 13 13 12 12 11 11 10 10 10 10 10 10 9 9 9 9 9 9 9 9 9 9 10 9 9 9 9 9 8 7 7 7 7 7 7
17 16 15 14 13 13 13 13 13 13 13 12 12 11 11 11 11 11 11 10 10 10 10 10 10 10 9 9 9 9 9 9 9 9 9 9 8 7 7 7 7 7 7
16 16 15 14 14 13 13 13 13 13 13 12 12 12 12 11 11 11 11 11 10 10 10 10 10 10 9 9 9 9 9 9 9 9 9 9 9 8 7 7 7 7 7
15 15 15 14 14 13 13 13 12 12 12 12 12 12 12 12 11 11 11 11 10 10 10 10 10 10 10 9 9 9 9 9 9 9 9 9 9 8 7 7 7 7 6
16 16 15 14 14 13 13 12 12 12 12 12 12 12 12 12 11 11 11 11 11 10 10 10 10 10 10 9 9 9 9 9 9 9 8 8 8 8 8 7 7 7 6
17 16 16 15 14 13 13 12 12 12 12 12 12 12 12 12 11 11 11 11 11 10 10 10 10 10 10 9 9 9 9 9 9 8 8 8 8 8 8 7 7 7 6
17 17 16 15 14 14 13 12 12 12 12 12 12 12 12 12 12 12 11 11 11 10 10 10 10 10 10 9 9 9 9 8 8 8 8 8 8 8 7 7 7 6 6
17 16 16 16 15 14 13 13 12 12 12 12 12 12 12 12 12 12 11 11 10 10 10 9 9 9 9 9 9 9 9 8 8 8 8 8 7 7 7 7 7 6 5
17 17 16 16 15 14 14 13 13 13 12 12 12 12 12 11 11 11 11 11 10 10 9 9 9 9 9 9 9 9 8 8 8 8 7 7 7 7 7 7 6 6 5
18 17 16 16 15 14 14 13 13 12 12 12 12 12 11 11 11 11 11 10 10 9 9 9 8 8 8 8 9 8 8 8 8 7 7 7 7 7 6 6 6 6 5
18 18 17 15 15 14 14 13 13 12 12 12 11 11 11 11 11 10 10 10 10 9 9 8 8 8 8 8 8 8 8 7 7 7 7 7 7 6 6 6 6 5 5
18 18 17 16 15 14 13 13 12 12 11 11 11 10 10 10 10 10 10 10 9 9 8 8 8 8 8 8 8 7 7 7 7 7 7 7 7 6 6 6 5 5 5
18 17 17 16 15 14 13 12 11 11 10 10 10 10 9 9 9 8 9 9 8 8 8 8 8 8 7 7 7 6 7 7 6 7 7 7 7 6 6 6 5 5 5
18 17 17 16 15 14 13 13 12 12 11 11 10 10 9 9 8 8 8 8 7 7 7 7 7 7 7 6 5 6 6 6 7 7 7 7 7 7 6 6 6 5 5
17 17 16 16 15 14 14 13 13 12 11 11 10 9 9 9 8 8 7 7 7 6 6 6 6 6 6 5 5 4 4 5 7 7 7 7 7 6 6 6 5 5 5
16 16 15 15 14 14 13 13 12 11 11 10 10 10 10 9 8 8 7 7 6 6 6 6 5 5 5 5 4 3 3 4 5 6 6 6 6 6 6 6 5 5 4
15 15 15 14 14 13 13 12 12 11 11 11 10 10 9 9 8 7 7 6 6 6 5 5 5 5 4 4 3 3 3 3 3 3 4 5 4 4 5 5 4 4 4
15 14 14 14 13 12 12 11 11 11 10 10 9 9 9 8 8 7 7 6 6 5 5 5 5 4 4 4 3 3 2 2 1 0 1 2 3 3 3 3 3 3 3
14 14 13 13 13 12 12 11 11 10 10 9 9 9 8 8 7 7 6 6 6 5 5 5 4 4 4 3 3 2 2 1 1 -0 -1 -0 0 1 1 1 2 2 2
Wind_Speed
10 20 23 22 20 18 16 15 14 13 12 12 11 11 12 12 12 12 13 14 14 14 15 16 16 16 17 17 17 18 18 18 18 20 21 21 21 21 21 21 20 19 21
15 25 26 24 22 20 18 17 15 14 13 12 12 12 12 11 11 12 12 12 13 13 14 14 15 15 16 16 16 17 17 17 18 19 19 18 18 20 20 20 20 19 20
19 26 26 26 24 22 20 18 17 15 14 13 13 12 12 11 11 11 11 11 11 12 12 13 14 14 14 15 15 16 16 16 17 17 17 17 15 18 18 19 19 19 19
23 25 25 26 25 23 21 20 18 17 16 14 13 13 12 11 11 11 11 11 11 11 11 12 12 13 13 13 14 15 15 15 15 16 17 16 13 16 17 17 18 18 18
23 24 25 27 26 24 22 21 19 18 17 16 14 14 13 12 11 11 10 10 10 10 10 10 11 11 12 12 13 14 14 14 13 15 17 16 13 15 16 16 16 17 17
18 23 26 28 26 25 23 22 21 19 18 17 16 14 13 12 12 11 10 10 9 9 9 9 9 10 10 10 11 12 13 12 11 13 14 14 12 14 14 15 15 15 15
17 23 25 28 27 25 24 23 22 20 19 18 17 15 14 13 12 11 11 10 9 9 8 8 8 8 8 9 9 10 11 11 9 10 12 12 10 13 13 13 13 14 14
18 23 24 27 27 26 25 24 22 21 20 19 18 17 16 15 13 12 11 10 9 8 7 7 6 6 6 7 7 8 9 9 7 6 8 10 9 11 11 11 12 12 12
19 20 20 24 26 26 25 24 23 22 21 20 19 18 17 16 15 14 13 11 10 9 8 7 6 5 5 5 5 7 8 9 7 4 4 7 8 9 9 10 10 10 11
12 16 18 20 22 23 24 24 24 23 22 21 20 19 18 17 16 15 14 13 12 10 9 7 6 5 4 4 4 5 6 7 7 3 2 5 6 7 7 8 8 8 9
13 12 16 16 19 21 21 23 24 23 22 21 20 19 18 16 15 15 15 14 13 12 10 9 8 7 6 4 3 4 5 6 6 4 1 3 4 5 5 6 6 7 7
17 16 12 16 18 19 20 21 20 21 21 21 19 19 18 16 15 14 16 16 15 14 12 11 10 9 7 6 5 4 5 6 6 5 4 2 2 3 4 4 4 5 5
16 16 15 16 19 19 18 17 17 18 18 19 20 19 18 17 16 15 15 16 15 15 12 11 9 8 8 8 8 7 7 7 7 7 6 5 4 4 4 4 4 4 5
12 17 16 16 17 20 19 17 16 16 16 17 20 22 19 15 14 15 15 15 14 13 13 12 10 10 10 11 11 10 10 10 10 10 9 8 7 6 6 6 5 5 5
14 16 15 15 16 19 18 18 18 18 18 19 20 23 22 17 14 15 15 16 16 15 15 14 13 13 12 13 13 13 13 13 13 13 12 11 10 10 9 8 8 7 7
19 18 16 19 18 19 17 16 16 20 19 20 21 23 24 21 17 15 14 15 16 18 18 16 15 13 13 13 13 14 15 15 15 16 16 15 14 13 12 11 11 10 9
19 17 17 17 16 16 16 18 19 20 21 21 22 23 24 23 20 17 14 13 16 19 18 16 15 13 10 10 9 14 15 16 17 17 18 18 17 16 15 14 13 13 12
15 15 17 17 17 16 15 16 17 19 21 21 22 23 25 25 23 19 14 14 18 17 16 11 8 6 7 7 7 8 12 14 17 19 19 19 19 18 18 17 16 16 15
15 15 16 16 17 17 13 14 15 16 19 20 21 22 23 24 24 21 16 15 17 14 13 11 8 7 8 8 8 7 7 9 13 16 17 20 21 21 21 20 19 19 17
12 13 14 16 15 14 10 8 8 9 10 16 18 20 21 22 23 22 17 16 16 9 9 8 9 8 7 7 8 9 8 8 11 13 16 19 20 22 22 21 21 20 19
8 11 13 14 14 11 8 9 10 12 10 8 14 19 21 22 23 21 16 14 14 10 12 11 8 9 8 4 4 6 6 10 14 12 15 15 18 21 22 22 21 21 20
5 8 10 12 12 13 13 11 7 7 6 7 8 14 20 22 22 22 17 11 12 10 11 11 10 7 7 7 6 3 6 6 9 15 13 13 13 16 18 21 21 21 21
1 4 7 9 11 12 11 6 3 2 2 4 7 8 14 21 22 23 20 17 13 13 14 14 13 13 11 9 8 6 5 8 4 5 9 12 11 11 12 17 20 22 22
4 2 2 5 7 8 8 8 10 10 11 11 10 10 10 17 20 22 21 19 14 14 16 15 15 13 13 12 8 10 9 5 4 5 4 6 9 12 11 12 16 20 22
6 5 3 0 3 5 7 10 10 12 13 9 7 9 10 10 15 19 20 17 15 15 16 15 14 15 15 15 12 7 11 10 10 8 11 6 4 6 9 9 11 15 20
7 6 5 3 1 3 6 8 10 13 13 11 10 10 10 9 10 13 16 15 15 15 16 17 16 17 17 17 15 12 9 8 9 11 17 14 9 6 7 9 10 13 18
Wind_Direction
186 181 174 169 167 165 162 158 152 144 139 133 125 119 113 106 100 94 91 87 83 79 76 74 73 72 70 70 69 69 68 65 61 55 49 52 61 60 58 58 55 49 50
166 175 174 171 170 167 165 162 157 152 147 141 136 129 122 116 110 102 97 92 87 83 80 77 75 73 72 72 72 72 70 68 64 55 45 38 52 61 58 56 55 53 51
162 172 173 173 171 169 167 165 162 158 154 150 144 138 132 126 120 114 107 101 95 90 85 81 78 75 74 74 75 75 73 71 65 53 38 25 35 60 58 56 55 53 51
165 171 173 174 173 171 169 168 166 163 161 157 153 147 142 136 131 125 117 111 105 98 91 87 83 79 76 76 79 79 77 75 66 47 29 21 29 59 58 56 54 53 50
168 172 175 176 175 173 172 171 170 168 166 163 160 155 150 145 140 134 127 121 114 107 99 93 88 83 80 79 83 86 83 80 66 41 28 22 25 57 58 56 53 52 50
170 173 179 179 178 176 175 174 173 173 171 169 166 163 158 154 149 143 137 132 127 120 112 102 95 88 83 81 85 93 93 87 66 43 29 21 26 56 57 54 53 51 49
170 175 183 182 181 180 178 178 177 177 176 174 172 169 166 162 158 153 150 146 140 133 125 115 105 96 89 85 87 96 103 99 81 48 27 16 32 56 56 52 50 49 47
170 176 185 185 185 184 183 181 181 181 180 179 178 176 173 170 167 165 162 159 154 148 140 132 119 108 99 93 92 99 106 108 101 58 24 12 42 55 54 50 46 45 44
171 176 187 190 188 188 188 186 185 185 185 184 183 182 180 178 177 175 173 171 169 165 160 154 146 134 119 108 106 109 111 117 116 84 19 7 44 50 50 46 41 40 39
174 181 189 192 188 189 191 191 190 189 189 189 189 187 186 186 186 184 182 182 182 180 179 178 175 172 160 139 130 127 120 128 135 120 23 4 39 42 43 41 35 31 31
186 191 190 191 189 189 191 195 194 194 194 194 193 192 191 191 191 190 185 190 192 192 193 195 197 199 196 193 182 158 144 151 162 170 274 346 26 28 32 30 26 21 19
194 195 193 192 189 187 193 198 196 195 196 195 194 193 190 188 191 192 194 200 201 201 203 206 211 212 208 215 227 197 179 183 189 201 238 287 336 351 4 7 5 2 2
193 193 197 195 190 189 192 195 195 193 194 193 192 190 188 189 195 203 207 212 209 207 207 214 222 215 215 221 226 219 213 211 212 217 235 261 276 295 311 319 326 330 335
189 197 197 194 193 193 193 194 194 192 192 191 192 191 187 191 201 209 212 214 209 204 204 214 224 227 231 232 229 226 225 225 225 227 236 252 261 270 280 286 292 299 306
201 199 197 194 195 194 195 197 199 199 198 195 195 196 195 196 204 209 212 212 211 209 209 214 222 230 235 236 234 230 229 230 231 232 237 247 255 260 267 272 277 282 288
210 204 196 197 198 195 199 202 203 203 201 198 201 203 202 204 206 206 210 212 214 214 214 215 219 223 229 232 234 233 233 233 235 236 238 243 251 256 261 265 269 273 277
212 206 199 198 196 198 201 203 205 204 203 206 208 208 208 209 208 207 210 213 216 217 217 219 223 225 229 231 235 235 235 234 236 237 238 240 244 251 256 260 263 265 269
212 206 204 202 198 201 203 202 205 204 205 211 211 211 212 213 211 209 213 217 217 214 213 213 214 215 226 226 231 235 235 235 237 238 238 238 240 243 248 254 257 260 263
211 205 202 203 201 201 200 200 202 203 208 212 211 212 214 214 213 212 217 218 215 212 213 220 214 210 221 227 234 240 240 240 240 241 237 237 236 238 240 246 252 255 258
206 203 202 203 205 197 191 190 197 206 211 212 213 215 212 212 212 213 219 216 210 210 217 219 221 216 221 222 240 250 244 241 241 239 239 238 235 235 236 236 241 247 253
195 198 200 202 202 189 187 196 204 215 213 212 215 214 213 213 211 212 220 214 209 217 222 217 220 224 229 197 232 275 269 245 243 240 237 236 234 232 231 230 231 234 241
205 208 205 204 198 197 204 204 203 211 216 217 218 218 216 215 215 218 219 217 212 218 222 216 211 221 222 190 192 225 288 291 244 237 231 231 234 230 230 230 228 228 229
306 228 218 212 204 203 200 186 178 171 264 224 223 224 218 217 217 220 221 220 216 216 226 221 213 216 227 212 199 187 214 248 297 258 234 232 228 224 228 229 227 227 227
347 324 243 215 208 204 189 190 198 212 226 228 227 229 222 218 220 221 223 222 221 221 227 224 218 218 219 228 216 222 224 200 235 293 266 236 229 227 225 227 228 227 226
9 18 15 126 211 202 198 204 211 228 238 244 237 236 234 227 226 225 224 224 226 226 228 226 221 217 219 228 222 212 228 236 231 246 272 275 259 237 226 224 226 226 225
16 23 27 28 313 221 211 217 223 236 245 252 249 245 245 240 234 229 227 228 229 230 229 227 225 222 224 225 227 221 213 216 218 224 245 255 252 239 227 225 226 227 227
Height
1560 1563 1566 1568 1569 1570 1571 1572 1572 1573 1573 1573 1573 1573 1573 1572 1572 1571 1571 1570 1570 1569 1568 1567 1565 1564 1563 1562 1561 1560 1560 1559 1559 1559 1558 1558 1559 1558 1557 1556 1555 1555 1555
1558 1561 1564 1566 1568 1569 1570 1571 1571 1572 1572 1573 1573 1572 1572 1572 1572 1571 1571 1570 1570 1569 1568 1567 1566 1565 1564 1563 1562 1561 1560 1560 1560 1559 1559 1559 1559 1559 1558 1557 1556 1556 1556
1556 1559 1561 1564 1567 1568 1569 1570 1571 1571 1571 1572 1572 1572 1572 1572 1572 1571 1571 1570 1570 1569 1568 1567 1566 1565 1565 1564 1563 1562 1561 1561 1560 1560 1560 1559 1559 1559 1558 1557 1557 1556 1556
1555 1557 1560 1563 1565 1567 1568 1569 1570 1570 1571 1571 1571 1571 1572 1571 1571 1571 1571 1570 1570 1569 1569 1568 1567 1566 1565 1564 1563 1562 1562 1561 1561 1561 1560 1559 1559 1560 1559 1558 1557 1556 1556
1553 1556 1558 1561 1563 1565 1567 1568 1569 1569 1570 1570 1571 1571 1571 1571 1571 1571 1571 1570 1570 1569 1569 1568 1568 1567 1566 1565 1564 1563 1563 1562 1562 1561 1561 1560 1559 1560 1559 1558 1557 1556 1556
1551 1554 1557 1559 1561 1563 1565 1566 1567 1568 1569 1569 1570 1570 1570 1571 1571 1571 1570 1570 1570 1569 1569 1568 1568 1567 1566 1566 1565 1564 1564 1563 1562 1562 1561 1560 1560 1560 1559 1558 1557 1556 1555
1550 1552 1555 1557 1560 1562 1563 1565 1566 1567 1567 1568 1569 1569 1570 1570 1570 1570 1570 1570 1569 1569 1569 1568 1568 1567 1567 1566 1565 1565 1564 1564 1563 1562 1562 1561 1560 1560 1559 1558 1557 1556 1555
1549 1551 1553 1555 1558 1560 1561 1563 1564 1565 1566 1567 1567 1568 1569 1569 1569 1569 1569 1569 1569 1569 1569 1568 1568 1567 1567 1566 1566 1565 1564 1564 1563 1563 1562 1561 1560 1560 1558 1557 1557 1556 1555
1548 1549 1551 1553 1555 1557 1559 1561 1562 1563 1564 1565 1566 1567 1567 1568 1568 1569 1569 1569 1569 1569 1568 1568 1568 1567 1567 1566 1566 1565 1565 1564 1563 1563 1562 1561 1560 1559 1558 1557 1556 1555 1554
1546 1547 1549 1551 1553 1554 1556 1558 1560 1561 1562 1563 1564 1565 1566 1567 1567 1568 1568 1568 1568 1568 1568 1567 1567 1567 1567 1566 1566 1565 1564 1564 1563 1562 1561 1560 1559 1558 1557 1556 1555 1554 1553
1542 1544 1546 1548 1550 1552 1554 1556 1557 1559 1560 1561 1562 1563 1564 1565 1566 1566 1567 1567 1567 1567 1566 1566 1566 1566 1566 1565 1565 1564 1564 1563 1563 1562 1561 1560 1558 1557 1556 1555 1554 1553 1552
1537 1539 1542 1544 1546 1549 1551 1552 1554 1556 1557 1558 1560 1561 1562 1563 1564 1565 1565 1565 1565 1565 1565 1565 1565 1564 1564 1564 1564 1563 1563 1562 1561 1561 1560 1558 1557 1556 1555 1554 1552 1551 1550
1533 1536 1538 1540 1542 1545 1547 1549 1550 1552 1554 1555 1557 1558 1560 1561 1561 1562 1563 1563 1563 1563 1563 1563 1563 1563 1562 1562 1561 1561 1560 1560 1559 1559 1558 1557 1556 1554 1553 1552 1550 1549 1548
1529 1531 1534 1536 1538 1541 1543 1545 1546 1548 1549 1551 1553 1555 1556 1557 1558 1559 1560 1561 1561 1561 1561 1561 1561 1560 1560 1559 1559 1558 1558 1557 1557 1556 1555 1554 1553 1552 1551 1549 1548 1547 1546
1525 1527 1529 1532 1534 1536 1538 1540 1542 1543 1545 1547 1549 1551 1553 1554 1555 1556 1557 1557 1558 1558 1558 1558 1558 1557 1557 1557 1556 1555 1555 1554 1553 1553 1552 1551 1550 1549 1548 1547 1545 1544 1543
1520 1522 1524 1526 1529 1531 1533 1534 1536 1538 1540 1543 1544 1546 1548 1550 1551 1552 1553 1553 1554 1555 1555 1555 1555 1554 1553 1553 1552 1551 1551 1550 1549 1549 1548 1547 1546 1545 1544 1543 1542 1541 1540
1516 1518 1519 1521 1524 1526 1528 1530 1532 1533 1536 1537 1539 1542 1543 1545 1546 1547 1548 1549 1550 1551 1551 1551 1550 1550 1549 1548 1548 1547 1546 1546 1545 1544 1543 1543 1542 1541 1540 1539 1538 1537 1536
1512 1514 1516 1518 1519 1521 1523 1525 1527 1528 1530 1532 1534 1536 1538 1540 1541 1542 1543 1543 1546 1546 1546 1546 1546 1545 1544 1543 1543 1542 1541 1540 1539 1539 1538 1537 1537 1536 1535 1534 1533 1532 1531
1508 1510 1512 1514 1515 1517 1519 1521 1523 1524 1525 1527 1528 1530 1531 1534 1535 1536 1537 1538 1540 1540 1540 1540 1539 1539 1538 1537 1537 1536 1535 1533 1533 1532 1531 1530 1530 1529 1529 1529 1528 1527 1526
1504 1506 1509 1511 1512 1514 1516 1518 1519 1520 1520 1521 1522 1523 1525 1527 1528 1530 1530 1531 1533 1533 1532 1532 1532 1532 1531 1531 1531 1528 1526 1525 1524 1523 1522 1522 1522 1522 1522 1522 1521 1520 1520
1501 1503 1505 1507 1509 1511 1512 1513 1514 1514 1515 1516 1517 1518 1519 1520 1521 1522 1522 1523 1524 1524 1524 1525 1525 1524 1523 1525 1523 1519 1516 1515 1513 1512 1513 1513 1513 1513 1513 1514 1514 1514 1513
1501 1501 1503 1504 1506 1507 1508 1509 1510 1511 1511 1512 1513 1512 1513 1513 1513 1514 1514 1514 1515 1515 1515 1515 1516 1515 1515 1516 1515 1513 1508 1504 1500 1502 1502 1501 1502 1504 1504 1505 1506 1506 1506
1501 1501 1501 1502 1503 1504 1505 1506 1506 1507 1506 1506 1506 1506 1506 1506 1506 1506 1505 1505 1505 1505 1505 1505 1506 1506 1505 1506 1506 1507 1504 1496 1493 1490 1490 1490 1492 1493 1494 1496 1497 1498 1498
1502 1501 1500 1500 1501 1502 1503 1503 1502 1501 1500 1499 1500 1500 1500 1499 1498 1497 1497 1496 1496 1495 1494 1495 1495 1495 1496 1494 1494 1493 1493 1492 1492 1484 1481 1481 1482 1483 1485 1487 1488 1489 1490
1503 1501 1500 1500 1500 1500 1500 1500 1499 1497 1496 1495 1494 1493 1492 1491 1490 1489 1488 1488 1486 1485 1484 1484 1484 1484 1483 1483 1482 1482 1481 1481 1480 1479 1473 1471 1471 1472 1475 1478 1479 1480 1481
1505 1503 1502 1501 1500 1499 1498 1497 1496 1494 1492 1491 1488 1487 1485 1484 1482 1481 1480 1479 1477 1475 1474 1473 1473 1473 1471 1470 1471 1470 1470 1468 1466 1467 1465 1462 1462 1463 1466 1468 1469 1471 1472